Regional Weather Roundup
Issued by NWS Newport/Morehead, NC

Current Version | Previous Version | Graphics & Text | Print | Product List | Glossary Off
Versions: 1 2 3 4 5 6 7 8 9 10 11 12 13 14 15 16 17 18 19 20 21 22 23 24 25 26 27 28 29 30 31 32 33 34 35 36 37 38 39 40 41 42 43 44 45 46 47 48 49 50

000
ASUS42 KMHX 192110
RWRMHX
WEATHER ROUNDUP FOR EASTERN NORTH CAROLINA
NATIONAL WEATHER SERVICE NEWPORT/MOREHEAD CITY NC
400 PM EST FRI JAN 19 2018

NOTE: "FAIR" INDICATES FEW OR NO CLOUDS BELOW 12,000 FEET
WITH NO SIGNIFICANT WEATHER AND/OR OBSTRUCTIONS TO VISIBILITY

NCZ015>017-031-032-045>047-102-103-192200-
NORTH COAST

CITY           SKY/WX    TMP DP  RH WIND       PRES   REMARKS
EDENTON        FAIR      56  19  23 SW9       30.12S
ELIZABETH CITY FAIR      53  34  48 SW8       30.11R
KITTY HAWK     FAIR      49  19  29 CALM      30.10S
MANTEO         FAIR      46  29  50 S3        30.12S

$$

NCZ045>047-081-094-103-104-192200-
CENTRAL COAST

CITY           SKY/WX    TMP DP  RH WIND       PRES   REMARKS
FRISCO         FAIR      52  34  50 SW9       30.16F

$$

NCZ095-097-098-100-101-192200-
SOUTHERN COAST

CITY           SKY/WX    TMP DP  RH WIND       PRES   REMARKS
BEAUFORT       FAIR      50  36  58 SW13      30.17F
CEDAR ISLAND   NOT AVBL
JACKSONVILLE   FAIR      58  22  24 W9        30.16F
PINEY ISLAND   NOT AVBL
WILMINGTON     FAIR      60  22  23 SW10      30.17F


$$

NCZ011>013-027>030-043-044-078>080-089-090>093-098-192200-
COASTAL PLAIN

CITY           SKY/WX    TMP DP  RH WIND       PRES   REMARKS
AHOSKIE        FAIR      51  20  29 CALM      30.12R
CLINTON        FAIR      56  27  32 SW6       30.16S
ELIZABETHTOWN  NOT AVBL
GOLDSBORO      FAIR      56  19  23 SW8       30.13S
GREENVILLE     FAIR      55  18  22 S8        30.14F
HAVELOCK       SUNNY     58  22  24 W13       30.16F
KENANSVILLE    FAIR      57  23  26 SW6       30.16S
KINSTON        FAIR      57  21  24 SW9       30.15F
NEW BERN       FAIR      56  22  26 SW8       30.15F
RICHLANDS      FAIR      57  24  28 W7        30.16F
ROCKY MOUNT    NOT AVBL
WASHINGTON     FAIR      56  16  20 SW5       30.14S
WHITEVILLE     FAIR      58  21  23 SW3       30.16F

$$

AMZ130-135-150-152-154-156-158-170-250-252-270-ANZ085-086-088-633-658-670-192200-
MARINE OBSERVATIONS

STATION/POSITION TIME  TEMP    WIND        PRES    WAVE   SWELL
                       AIR SEA DIR/SP/G            HT/PER HT/PER
                 (UTC) (F)     (DEG/KT/KT) (MB)    (FT/S) (FT/S)
CHESAPEAKE LIGHT NOT AVBL
64 E VA BEACH    NOT AVBL
DUCK             NOT AVBL
2 E DUCK         NOT AVBL
OREGON INLET     NOT AVBL
13E OREGON INLT  NOT AVBL
HATTERAS CG      NOT AVBL
DIAMOND BUOY     NOT AVBL
CAPE LOOKOUT     NOT AVBL
BEAUFORT LAB     NOT AVBL
30 SE NEW RVR IN NOT AVBL
30 SE NEW RVR IN NOT AVBL
27 SE WRIGHTSVLE NOT AVBL
5 SE WRIGHTSVLE  NOT AVBL
225 S CAPE HAT   NOT AVBL
41 SE CHARLESTON NOT AVBL

$$



USA.gov is the U.S. government's official web portal to all federal, state and local government web resources and services.